Location: Marcé
(47.5801°N, 0.3280°W)
Time: 11:22:51
(UTC+01:00)

Explorer 7 - Pass Details

Date: 14 December 2021
Orbit: 483 x 674 km, 50.3° (Epoch: 19 January)

Event Time Altitude Azimuth Distance (km) Brightness Sun altitude
Exits shadow 05:19:17 21° 70° (ENE) 1,324 9.3 -33.0°
Drops below altitude 10° 05:20:43 10° 75° (ENE) 1,856 10.3 -32.8°
Sets 05:22:55 0° 79° (ENE) 2,719 11.4 -32.4°
